TimeEST,TemperatureF,Dew PointF,Humidity,Sea Level PressureIn,VisibilityMPH,Wind Direction,Wind SpeedMPH,Gust SpeedMPH,PrecipitationIn,Events,Conditions,WindDirDegrees,DateUTC
12:18 AM,24.8,21.2,86,30.54,10.0,Calm,Calm,-,N/A,,Overcast,0,2012-12-02 05:18:00
12:26 AM,24.8,21.2,86,30.54,10.0,Calm,Calm,-,N/A,,Overcast,0,2012-12-02 05:26:00
12:53 AM,24.1,21.0,88,30.53,10.0,Variable,3.5,-,N/A,,Overcast,0,2012-12-02 05:53:00
1:53 AM,25.0,21.0,85,30.52,10.0,Calm,Calm,-,N/A,,Overcast,0,2012-12-02 06:53:00
2:08 AM,24.8,21.2,86,30.52,10.0,Calm,Calm,-,N/A,,Overcast,0,2012-12-02 07:08:00
2:17 AM,24.8,21.2,86,30.52,10.0,Variable,3.5,-,N/A,,Overcast,0,2012-12-02 07:17:00
2:53 AM,24.1,21.0,88,30.51,7.0,Calm,Calm,-,N/A,,Overcast,0,2012-12-02 07:53:00
3:53 AM,25.0,21.9,88,30.49,6.0,Calm,Calm,-,0.00,,Overcast,0,2012-12-02 08:53:00
4:53 AM,25.0,23.0,92,30.46,6.0,Calm,Calm,-,N/A,,Overcast,0,2012-12-02 09:53:00
5:43 AM,26.6,23.0,86,30.45,5.0,Calm,Calm,-,0.00,,Overcast,0,2012-12-02 10:43:00
5:53 AM,26.1,23.0,88,30.45,6.0,Calm,Calm,-,0.00,,Overcast,0,2012-12-02 10:53:00
6:51 AM,26.6,24.8,93,30.42,5.0,Calm,Calm,-,0.00,Rain,Light Freezing Rain,0,2012-12-02 11:51:00
6:53 AM,27.0,24.1,89,30.43,5.0,Calm,Calm,-,0.00,Rain,Light Freezing Rain,0,2012-12-02 11:53:00
7:22 AM,26.6,24.8,93,30.41,5.0,Calm,Calm,-,0.00,,Overcast,0,2012-12-02 12:22:00
7:53 AM,28.0,25.0,88,30.40,4.0,Calm,Calm,-,0.01,,Overcast,0,2012-12-02 12:53:00
8:53 AM,30.0,27.0,88,30.38,4.0,Calm,Calm,-,0.00,,Overcast,0,2012-12-02 13:53:00
9:43 AM,30.2,28.4,93,30.36,2.5,Calm,Calm,-,0.00,,Overcast,0,2012-12-02 14:43:00
9:53 AM,30.9,28.9,92,30.36,2.0,Calm,Calm,-,0.00,Rain,Light Freezing Rain,0,2012-12-02 14:53:00
10:14 AM,32.0,30.2,93,30.34,1.2,Calm,Calm,-,0.01,Rain,Light Freezing Rain,0,2012-12-02 15:14:00
10:24 AM,32.0,30.2,93,30.34,1.2,Calm,Calm,-,0.03,Rain,Light Freezing Rain,0,2012-12-02 15:24:00
10:29 AM,32.0,30.2,93,30.33,2.0,Calm,Calm,-,0.03,Rain,Light Freezing Rain,0,2012-12-02 15:29:00
10:45 AM,33.8,30.2,87,30.31,2.0,Calm,Calm,-,0.03,,Overcast,0,2012-12-02 15:45:00
10:53 AM,33.1,30.9,92,30.32,2.0,Calm,Calm,-,0.03,,Overcast,0,2012-12-02 15:53:00
11:04 AM,33.8,30.2,87,30.30,1.8,Calm,Calm,-,N/A,,Overcast,0,2012-12-02 16:04:00
11:18 AM,33.8,30.2,87,30.29,2.0,Calm,Calm,-,N/A,,Overcast,0,2012-12-02 16:18:00
11:28 AM,33.8,30.2,87,30.28,2.0,Calm,Calm,-,N/A,,Overcast,0,2012-12-02 16:28:00
11:53 AM,34.0,32.0,92,30.27,1.5,Calm,Calm,-,N/A,,Overcast,0,2012-12-02 16:53:00
11:56 AM,35.6,33.8,93,30.26,0.8,Calm,Calm,-,N/A,,Overcast,0,2012-12-02 16:56:00
12:20 PM,44.6,42.8,93,30.25,1.8,SW,4.6,-,N/A,,Overcast,230,2012-12-02 17:20:00
12:23 PM,44.6,42.8,93,30.25,3.0,SW,4.6,-,N/A,,Overcast,220,2012-12-02 17:23:00
12:36 PM,42.8,42.8,100,30.25,1.5,West,4.6,-,N/A,,Overcast,270,2012-12-02 17:36:00
12:40 PM,41.0,39.2,93,30.24,0.8,West,4.6,-,N/A,,Overcast,270,2012-12-02 17:40:00
12:53 PM,39.0,37.0,93,30.25,0.8,West,4.6,-,0.00,Rain,Light Rain,260,2012-12-02 17:53:00
1:15 PM,39.2,37.4,93,30.22,0.8,Calm,Calm,-,0.00,,Overcast,0,2012-12-02 18:15:00
1:53 PM,41.0,39.9,96,30.20,1.0,Calm,Calm,-,0.00,,Overcast,0,2012-12-02 18:53:00
2:02 PM,41.0,39.2,93,30.20,1.8,Calm,Calm,-,N/A,,Overcast,0,2012-12-02 19:02:00
2:10 PM,41.0,39.2,93,30.19,2.0,Calm,Calm,-,N/A,,Overcast,0,2012-12-02 19:10:00
2:19 PM,41.0,39.2,93,30.19,1.8,West,3.5,-,N/A,,Overcast,280,2012-12-02 19:19:00
2:25 PM,41.0,39.2,93,30.19,1.2,Calm,Calm,-,N/A,,Overcast,0,2012-12-02 19:25:00
2:40 PM,41.0,39.2,93,30.19,0.8,Calm,Calm,-,N/A,,Overcast,0,2012-12-02 19:40:00
2:53 PM,41.0,39.0,93,30.18,0.5,Calm,Calm,-,N/A,Fog,Fog,0,2012-12-02 19:53:00
3:53 PM,44.1,42.1,93,30.15,0.5,Calm,Calm,-,N/A,Fog,Fog,0,2012-12-02 20:53:00
4:00 PM,46.4,42.8,87,30.14,1.5,SSW,3.5,-,N/A,,Overcast,210,2012-12-02 21:00:00
4:11 PM,44.6,44.6,100,30.14,2.5,SSW,4.6,-,N/A,,Overcast,200,2012-12-02 21:11:00
4:23 PM,46.4,44.6,93,30.13,4.0,Variable,3.5,-,N/A,,Overcast,0,2012-12-02 21:23:00
4:53 PM,46.0,45.0,96,30.12,3.0,Calm,Calm,-,N/A,,Overcast,0,2012-12-02 21:53:00
5:02 PM,46.4,44.6,93,30.11,1.8,South,3.5,-,N/A,,Overcast,190,2012-12-02 22:02:00
5:19 PM,46.4,44.6,93,30.10,0.8,SW,3.5,-,N/A,,Overcast,220,2012-12-02 22:19:00
5:53 PM,46.0,45.0,96,30.09,0.5,Calm,Calm,-,0.01,Fog-Rain,Light Rain,0,2012-12-02 22:53:00
6:53 PM,43.0,41.0,93,30.06,0.8,Calm,Calm,-,0.02,Rain,Light Rain,0,2012-12-02 23:53:00
7:17 PM,48.2,46.4,93,30.04,1.5,Variable,4.6,-,0.00,Rain,Light Rain,0,2012-12-03 00:17:00
7:21 PM,48.2,46.4,93,30.04,3.0,SW,5.8,-,0.00,Rain,Light Rain,220,2012-12-03 00:21:00
7:53 PM,48.9,48.0,97,30.03,8.0,South,5.8,-,0.00,,Overcast,190,2012-12-03 00:53:00
8:15 PM,50.0,48.2,94,30.02,8.0,SSW,8.1,-,N/A,,Overcast,200,2012-12-03 01:15:00
8:38 PM,50.0,48.2,94,30.02,7.0,SSW,9.2,-,0.01,Rain,Light Rain,200,2012-12-03 01:38:00
8:53 PM,50.0,46.9,89,30.01,6.0,SSW,13.8,21.9,0.03,Rain,Light Rain,200,2012-12-03 01:53:00
9:53 PM,50.0,46.0,86,30.01,5.0,WSW,10.4,23.0,0.09,Rain,Light Rain,240,2012-12-03 02:53:00
10:39 PM,48.2,46.4,93,30.00,5.0,SW,10.4,-,0.09,Rain,Light Rain,220,2012-12-03 03:39:00
10:53 PM,48.9,45.0,86,29.99,7.0,SW,11.5,19.6,0.10,Rain,Light Rain,220,2012-12-03 03:53:00
11:07 PM,48.2,44.6,87,29.99,7.0,SW,10.4,19.6,0.01,Rain,Light Rain,220,2012-12-03 04:07:00
11:24 PM,48.2,44.6,87,29.99,7.0,SW,17.3,24.2,0.01,Rain,Light Rain,220,2012-12-03 04:24:00
11:53 PM,48.0,45.0,89,29.98,8.0,SW,9.2,16.1,0.01,,Overcast,220,2012-12-03 04:53:00